CAPE
20 39 144 285 382 530 643 695 712 641 607 699 768 781 851 1026 900 774 835 1048 933 1067 1440 1321 1144 1166 1092 988 814 770 736 465 744 1062 1102 1408 1527 1438 1500 1661 1421 1576 1449
35 20 61 195 347 534 733 809 891 694 734 773 709 745 773 778 710 607 826 1231 1169 1297 1504 1699 1573 1589 1327 1179 1172 1228 1281 1131 1176 1354 1479 1405 1349 1326 1376 1467 1528 1478 1083
61 51 63 135 313 454 540 870 1146 1052 972 878 837 830 869 869 890 1169 1171 1094 1153 1190 1354 1534 1563 1579 1496 1500 1371 1254 1216 1220 1168 1118 949 1099 1133 1181 1227 1350 1240 1165 976
111 108 90 126 262 451 545 733 1079 1210 1189 1104 1186 1147 992 1196 1257 1354 1342 1156 1210 1358 1449 1448 1476 1410 1398 1369 1175 1206 1298 1309 1312 1186 1224 1229 1216 1089 998 797 608 1116 910
217 214 136 158 222 335 491 675 905 1069 1064 1112 1125 1409 1464 1471 1299 1285 1366 1169 1173 1286 1393 1425 1479 1539 1465 1474 1470 1462 1492 1473 1340 1123 950 1017 1030 941 931 827 846 820 746
386 277 268 245 235 282 389 450 653 885 1023 1070 1040 1222 1331 1321 1072 902 1228 1377 1298 1459 1319 1465 1456 1460 1443 1365 1210 1173 1359 1568 1336 1144 1011 933 927 824 603 726 784 759 648
471 499 476 403 336 327 418 435 413 486 737 862 1008 1076 1193 1374 1205 958 860 1296 1279 1379 1250 1048 1356 1393 1155 1248 987 626 526 485 496 769 660 502 404 511 743 731 586 564 637
654 611 633 554 538 567 614 637 622 571 509 516 600 760 850 885 628 533 524 663 864 958 892 830 697 568 758 519 545 488 528 739 615 291 257 334 555 646 622 485 553 544 375
864 802 777 630 652 757 844 819 738 602 497 475 482 526 616 654 556 678 604 693 690 666 516 354 267 213 160 35 73 140 238 322 374 165 140 137 147 185 185 209 295 360 374
332 526 756 788 775 611 484 266 83 135 132 29 0 28 128 160 78 93 272 518 549 417 255 49 17 9 2 0 0 0 5 9 0 0 19 56 83 139 180 175 408 441 376
0 0 3 168 109 17 64 49 70 10 1 0 0 21 19 0 0 0 0 13 53 7 0 0 7 1 0 0 0 0 0 0 0 0 0 3 8 85 328 296 201 287 399
0 0 0 24 0 0 94 43 15 0 0 0 7 19 5 0 0 0 0 0 0 6 0 22 3 0 0 0 0 0 0 0 0 0 0 1 21 99 274 311 285 189 195
0 0 0 147 0 0 10 4 21 30 10 13 1 0 0 0 0 0 0 0 0 0 0 1 0 0 0 0 0 0 2 3 1 5 15 38 10 28 113 126 105 42 20
0 25 24 166 83 153 104 203 217 132 111 50 26 30 1 0 0 1 0 0 0 0 0 0 0 0 0 1 1 0 0 0 1 2 3 2 2 4 4 2 37 40 61
0 46 59 138 140 87 17 45 85 38 36 94 22 10 0 0 0 0 3 0 0 0 0 0 0 1 0 1 1 1 0 0 0 1 1 3 3 2 1 0 1 1 6
0 5 22 14 1 0 0 0 0 0 0 0 2 25 0 0 0 0 0 0 0 0 0 0 0 0 0 0 0 2 0 0 0 0 0 0 0 0 0 0 0 1 2
0 0 0 0 0 0 0 0 0 0 0 0 0 0 0 0 0 0 0 0 0 0 0 0 0 0 0 0 0 0 0 0 0 0 0 0 0 0 0 0 0 1 0
0 0 0 0 0 0 0 0 0 0 0 0 0 0 0 0 0 0 0 0 0 0 0 0 0 0 0 0 0 0 0 0 0 0 0 0 0 0 0 0 1 1 1
0 0 0 0 0 0 0 0 0 0 0 0 0 1 0 0 0 0 0 0 0 0 0 0 0 0 0 0 0 0 0 0 0 0 0 0 0 0 0 0 0 0 1
0 0 0 0 0 0 0 0 0 0 0 0 0 0 0 0 0 0 0 0 0 0 0 0 0 0 0 0 0 0 0 0 0 0 0 0 0 0 0 0 0 0 0
0 0 0 0 0 0 0 0 0 0 0 0 0 0 0 0 0 0 0 0 0 0 0 0 0 0 0 0 0 0 0 0 0 0 0 0 0 0 0 0 0 0 0
0 0 0 0 0 0 0 0 0 0 0 0 0 0 0 0 0 0 0 0 0 0 0 0 0 0 0 0 0 0 0 0 0 0 0 0 0 0 0 0 0 0 0
0 0 0 0 0 0 0 0 0 0 0 0 0 0 0 0 0 0 0 0 0 0 0 0 0 0 0 0 0 0 0 0 0 0 0 0 0 0 0 0 0 0 0
0 0 0 0 0 0 0 0 0 0 0 0 0 0 0 0 0 0 0 0 0 0 0 0 20 48 8 0 0 0 0 0 0 0 0 0 0 0 0 0 0 0 0
0 0 0 0 0 0 0 0 0 0 0 0 0 0 0 0 0 0 0 0 0 0 0 0 19 75 67 10 7 0 0 0 0 0 0 0 0 0 0 0 0 0 0
0 0 0 0 0 0 0 0 0 0 0 0 0 0 0 0 0 0 0 0 0 0 0 0 0 1 2 3 41 27 0 0 0 0 0 0 0 0 0 0 0 0 0
CIN
-299 -270 -216 -167 -133 -93 -71 -61 -62 -70 -72 -71 -67 -49 -47 -52 -66 -66 -64 -56 -53 -42 -34 -37 -40 -45 -41 -56 -85 -102 -103 -135 -81 -118 -125 -95 -105 -97 -84 -68 -72 -58 -62
-296 -288 -251 -207 -146 -106 -75 -58 -60 -64 -70 -65 -70 -71 -53 -58 -73 -37 -43 -48 -33 -25 -18 -17 -17 -20 -26 -37 -37 -36 -39 -48 -25 -13 -40 -73 -96 -99 -82 -74 -61 -63 -84
-316 -285 -277 -264 -187 -139 -107 -62 -50 -49 -62 -68 -76 -67 -54 -54 -69 -62 -73 -57 -38 -31 -28 -19 -23 -18 -18 -20 -22 -26 -29 -32 -37 -27 -24 -67 -92 -104 -90 -80 -89 -106 -128
-373 -327 -279 -260 -216 -150 -116 -97 -51 -47 -46 -52 -51 -56 -54 -48 -51 -65 -80 -65 -53 -43 -34 -33 -32 -30 -26 -24 -27 -23 -21 -22 -23 -20 -19 -18 -31 -55 -74 -59 -100 -87 -134
-283 -259 -254 -246 -211 -167 -145 -108 -74 -49 -41 -50 -43 -48 -50 -50 -43 -45 -53 -48 -45 -39 -37 -33 -33 -32 -28 -26 -23 -24 -20 -16 -15 -13 -16 -20 -26 -39 -41 -37 -51 -90 -135
-223 -236 -237 -223 -194 -198 -162 -144 -102 -72 -53 -50 -52 -39 -35 -44 -47 -52 -35 -31 -32 -25 -23 -20 -25 -20 -28 -31 -34 -37 -28 -11 -14 -16 -13 -19 -47 -50 -85 -67 -65 -65 -103
-208 -186 -164 -210 -188 -164 -151 -149 -140 -117 -89 -61 -48 -48 -39 -41 -45 -42 -46 -28 -18 -20 -14 -12 -17 -21 -27 -22 -27 -38 -43 -52 -59 -30 -29 -48 -54 -56 -56 -50 -85 -79 -77
-123 -110 -91 -87 -125 -135 -129 -132 -125 -117 -99 -83 -74 -62 -49 -47 -59 -58 -62 -48 -38 -37 -39 -37 -32 -37 -40 -47 -38 -43 -47 -40 -49 -76 -61 -60 -62 -69 -63 -80 -82 -98 -125
-32 -40 -26 -75 -69 -86 -85 -89 -102 -93 -79 -85 -85 -79 -65 -74 -114 -87 -84 -61 -54 -50 -65 -81 -95 -88 -112 -175 -130 -96 -59 -58 -47 -65 -91 -98 -130 -139 -159 -139 -174 -107 -105
-38 -31 -28 -33 -18 -40 -85 -96 -154 -144 -167 -172 -0 -157 -119 -93 -117 -126 -115 -73 -53 -79 -136 -237 -246 -265 -267 -0 -0 -0 -156 -87 -0 -0 -105 -128 -105 -101 -143 -199 -106 -90 -106
-0 -0 -66 -59 -69 -99 -84 -84 -89 -197 -259 -0 -0 -138 -218 -0 -0 -0 -1 -98 -89 -149 -7 -0 -239 -48 -0 -0 -0 -0 -0 -0 -0 -0 -0 -73 -106 -96 -75 -142 -184 -123 -80
-0 -0 -0 -2 -0 -0 -5 -99 -139 -45 -0 -0 -234 -186 -219 -0 -0 -0 -0 -0 -0 -135 -0 -165 -69 -0 -0 -0 -0 -0 -0 -0 -0 -0 -0 -18 -53 -44 -56 -86 -125 -158 -193
-0 -0 -0 -18 -0 -0 -85 -13 -146 -176 -167 -260 -27 -11 -0 -0 -0 -0 -0 -0 -0 -0 -0 -243 -0 -0 -0 -0 -0 -0 -0 -0 -0 -87 -69 -38 -69 -92 -73 -106 -177 -254 -324
-1 -119 -89 -26 -55 -29 -6 -7 -33 -122 -124 -189 -213 -186 -0 -0 -0 -0 -2 -0 -0 -0 -0 -0 -0 -0 -0 -0 -0 -0 -0 -0 -0 -0 -0 -0 -0 -0 -0 -0 -189 -193 -156
-0 -85 -57 -66 -67 -99 -224 -59 -111 -146 -75 -102 -186 -297 -0 -0 -0 -0 -15 -0 -0 -0 -0 -0 -0 -0 -0 -0 -0 -0 -0 -0 -0 -0 -0 -0 -0 -0 -0 -0 -0 -0 -113
-0 -92 -179 -276 -189 -39 -0 -21 -0 -0 -0 -0 -211 -221 -0 -0 -0 -0 -0 -0 -0 -0 -0 -0 -0 -0 -0 -0 -0 -0 -0 -0 -0 -0 -0 -0 -0 -0 -0 -0 -0 -0 -0
-0 -0 -0 -0 -0 -0 -0 -0 -0 -0 -0 -0 -0 -0 -0 -0 -0 -0 -0 -0 -0 -0 -0 -0 -0 -0 -0 -0 -0 -0 -0 -0 -0 -0 -0 -0 -0 -0 -0 -0 -0 -0 -0
-0 -0 -0 -0 -0 -0 -0 -0 -0 -0 -0 -0 -0 -0 -0 -0 -0 -0 -0 -0 -0 -0 -0 -0 -0 -0 -0 -0 -0 -0 -0 -0 -0 -0 -0 -0 -0 -0 -0 -0 -0 -0 -0
-0 -0 -0 -0 -0 -0 -0 -0 -0 -0 -0 -0 -0 -45 -0 -0 -0 -0 -0 -0 -0 -0 -0 -0 -0 -0 -0 -0 -0 -0 -0 -0 -0 -0 -0 -0 -0 -0 -0 -0 -0 -0 -0
-0 -0 -0 -0 -0 -0 -0 -0 -0 -0 -0 -0 -0 -0 -0 -0 -0 -0 -0 -0 -0 -0 -0 -0 -0 -0 -0 -0 -0 -0 -0 -0 -0 -0 -0 -0 -0 -0 -0 -0 -0 -0 -0
-0 -0 -0 -0 -0 -0 -0 -0 -0 -0 -0 -0 -0 -0 -0 -0 -0 -0 -0 -0 -0 -0 -0 -0 -0 -0 -0 -0 -0 -0 -0 -0 -0 -0 -0 -0 -0 -0 -0 -0 -0 -0 -0
-0 -0 -0 -0 -0 -0 -0 -0 -0 -0 -0 -0 -0 -0 -0 -0 -0 -0 -0 -0 -0 -0 -0 -0 -0 -0 -0 -0 -0 -0 -0 -0 -0 -0 -0 -0 -0 -0 -0 -0 -0 -0 -0
-0 -0 -0 -0 -0 -0 -0 -0 -0 -0 -0 -0 -0 -0 -0 -0 -0 -0 -0 -0 -0 -0 -0 -0 -0 -0 -0 -0 -0 -0 -0 -0 -0 -0 -0 -0 -0 -0 -0 -0 -0 -0 -0
-0 -0 -0 -0 -0 -0 -0 -0 -0 -0 -0 -0 -0 -0 -0 -0 -0 -0 -0 -0 -0 -0 -0 -0 -129 -105 -120 -0 -0 -0 -0 -0 -0 -0 -0 -0 -0 -0 -0 -0 -0 -0 -0
-0 -0 -0 -0 -0 -0 -0 -0 -0 -0 -0 -0 -0 -0 -0 -0 -0 -0 -0 -0 -0 -0 -0 -0 -159 -116 -119 -137 -157 -18 -0 -0 -0 -0 -0 -0 -0 -0 -0 -0 -0 -0 -0
-0 -0 -0 -0 -0 -0 -0 -0 -0 -0 -0 -0 -0 -0 -0 -0 -0 -0 -0 -0 -0 -0 -0 -0 -0 -42 -82 -71 -97 -110 -44 -0 -0 -0 -0 -0 -0 -0 -0 -0 -0 -0 -0
Wind_Speed
18 18 17 18 18 18 18 16 13 14 15 13 10 8 17 20 25 28 31 30 28 29 27 26 28 26 25 23 21 19 17 15 13 22 23 25 25 24 27 27 27 27 28
17 17 18 22 21 21 19 19 18 16 17 16 16 15 19 24 24 22 26 25 28 30 30 27 30 28 28 27 25 21 20 19 18 16 28 26 25 28 28 29 30 28 29
20 17 17 19 20 21 23 22 22 21 21 21 19 18 22 25 28 27 22 21 23 26 26 26 27 27 28 28 26 25 25 24 22 22 25 27 28 31 30 30 30 30 30
24 21 19 18 19 21 25 24 23 23 24 25 23 21 22 24 24 25 24 23 25 27 28 28 28 26 28 28 27 26 27 27 28 27 28 30 31 32 31 35 37 32 35
28 26 22 22 21 21 21 22 22 21 23 24 25 24 23 23 23 23 24 23 25 28 28 28 29 28 28 29 29 29 27 27 26 27 29 28 30 33 33 33 33 33 33
29 27 26 25 23 22 21 21 24 23 22 23 24 24 24 25 25 25 25 27 29 29 30 31 32 35 35 32 30 28 26 26 27 27 27 24 28 31 33 33 32 32 27
25 29 30 27 25 25 24 23 23 24 25 25 25 27 29 29 29 28 27 27 29 31 32 34 35 32 34 34 35 31 28 24 22 23 25 26 31 32 33 33 28 23 21
28 26 27 26 26 26 25 25 25 23 24 25 27 28 30 33 32 29 28 27 29 30 33 34 35 37 34 35 36 35 32 30 28 25 23 24 28 31 29 29 26 24 22
31 29 28 25 22 24 24 25 24 21 20 19 20 22 24 26 26 25 24 26 27 29 30 32 33 36 39 39 38 35 32 31 33 26 26 23 22 26 27 25 25 23 23
25 24 27 24 23 21 21 20 20 16 15 15 16 18 19 23 27 26 26 25 27 29 28 32 34 35 37 37 33 33 35 32 32 31 30 32 27 26 24 19 23 22 21
19 21 21 19 20 17 17 16 16 15 14 16 17 20 17 19 22 30 27 29 26 27 29 30 31 33 32 34 30 28 27 25 27 25 27 26 23 24 23 19 20 19 20
15 18 15 24 17 18 23 18 17 17 14 14 13 12 14 18 19 18 17 25 23 20 19 4 16 29 33 29 25 24 24 23 22 22 19 16 18 21 23 19 19 19 19
12 12 14 22 17 19 16 18 18 15 15 12 16 22 27 26 18 6 10 3 6 9 10 17 33 36 32 26 24 24 25 26 26 26 24 21 21 24 22 22 22 23 21
13 13 17 19 18 17 16 20 20 17 16 12 19 12 10 15 12 10 8 6 7 9 10 15 30 30 25 22 23 24 25 26 25 25 25 23 19 22 23 24 24 26 24
11 10 12 15 14 12 12 12 12 13 8 7 8 11 8 6 5 4 6 7 7 8 10 15 21 22 22 23 23 24 25 25 25 25 24 24 22 23 25 26 26 26 24
13 13 12 11 13 12 13 14 15 15 15 15 16 15 13 12 11 10 9 10 11 10 14 16 17 19 19 23 23 24 23 24 24 24 25 25 26 26 26 26 26 26 25
14 14 12 12 14 15 15 15 14 14 16 16 15 14 14 10 9 8 8 9 10 12 13 15 18 19 19 22 24 24 24 24 24 25 25 26 27 27 27 27 27 26 26
15 15 15 14 14 15 18 16 18 16 17 16 15 14 12 10 10 11 12 12 14 15 16 15 17 19 21 23 24 25 25 26 27 28 27 27 28 29 29 29 29 30 30
17 16 16 16 16 15 15 15 16 18 17 17 16 16 16 17 18 17 18 17 18 17 17 19 20 21 22 23 24 25 26 26 27 28 28 29 29 29 30 30 31 32 33
17 17 17 17 16 16 17 18 20 21 21 21 20 19 18 19 18 19 18 20 23 23 22 22 22 23 23 23 24 25 25 26 27 27 28 29 29 29 31 31 32 34 34
19 18 18 18 20 21 21 22 22 23 23 23 23 24 24 21 22 21 21 21 22 23 21 21 22 22 23 23 23 24 24 25 25 27 28 28 29 30 29 30 31 32 33
20 21 21 22 22 22 22 23 23 23 23 23 25 25 26 23 24 24 24 23 24 25 23 21 20 20 20 21 23 22 23 24 24 25 26 27 28 29 30 31 32 33 34
22 22 23 23 23 23 23 23 23 24 25 26 26 26 26 26 26 26 26 26 25 26 25 24 23 23 21 21 21 23 23 24 23 22 24 26 28 29 30 31 33 34 34
22 23 24 25 26 26 26 25 24 24 24 25 26 26 27 27 27 26 25 25 26 27 28 26 24 25 25 22 22 21 23 24 23 24 25 26 27 28 29 31 33 34 34
21 22 23 24 26 27 27 27 28 28 28 28 28 28 28 29 29 28 27 27 26 25 24 23 22 23 26 25 25 24 24 24 24 23 25 28 29 29 30 31 32 33 34
23 24 24 25 27 28 29 28 28 29 30 30 30 30 29 28 28 28 29 29 29 29 27 25 24 23 21 24 26 25 25 26 25 25 25 26 28 29 29 30 31 31 33
Wind_Direction
230 236 235 236 235 243 248 255 252 265 275 274 273 266 284 285 280 276 275 281 287 287 293 296 296 301 304 309 313 318 321 323 313 325 330 333 336 340 342 346 348 351 354
223 233 237 247 246 247 246 257 260 263 271 276 281 278 283 282 285 289 285 288 287 286 290 296 294 300 303 305 310 313 316 318 318 308 325 330 332 335 337 340 343 348 350
239 232 238 245 242 244 250 257 262 264 269 275 278 278 279 283 282 285 286 289 293 295 299 300 300 303 304 306 308 311 313 316 318 320 324 328 330 331 334 338 340 345 350
243 244 244 246 245 249 254 255 259 263 267 271 275 277 279 283 286 289 286 287 290 293 294 298 301 305 306 309 311 312 313 315 317 318 321 323 326 329 332 332 334 343 343
247 250 247 255 257 255 254 253 257 261 266 270 273 277 278 281 285 289 289 288 291 293 296 299 300 304 306 306 308 310 312 314 316 318 320 324 325 325 328 334 335 340 342
251 249 252 255 257 255 255 256 258 261 264 269 271 273 276 279 282 285 288 288 289 292 295 298 300 299 300 303 306 307 308 311 312 314 316 318 321 323 325 328 333 337 345
252 256 256 255 256 257 258 260 260 262 266 268 271 273 275 278 281 283 284 287 288 290 293 296 299 303 304 305 306 308 307 305 301 307 310 312 315 319 320 322 329 335 338
256 257 259 260 257 259 259 260 264 267 269 271 274 278 279 280 282 282 283 285 288 291 295 297 299 300 304 306 307 309 309 308 306 305 302 307 312 315 318 319 325 330 337
256 257 260 263 263 261 259 261 265 269 274 276 282 285 286 286 288 287 285 285 286 289 294 298 300 300 300 303 304 310 311 309 310 310 309 311 313 315 315 319 317 322 330
258 262 263 266 263 270 262 263 266 270 277 286 293 298 300 299 296 294 286 283 285 288 292 295 299 299 298 305 313 315 311 315 314 313 312 309 313 313 317 319 314 314 321
265 270 273 271 271 268 274 267 269 277 283 288 299 298 301 295 305 297 287 284 284 288 291 300 291 297 309 311 321 326 326 326 322 319 317 318 314 311 317 324 317 315 317
285 277 273 272 270 275 264 291 283 285 294 291 286 294 286 296 315 312 305 279 285 291 300 295 318 288 292 308 326 337 348 352 352 343 340 339 335 320 317 330 325 315 319
293 300 281 283 282 276 288 287 289 296 282 297 293 305 305 304 303 339 320 191 283 297 294 310 282 266 288 306 322 334 339 348 350 351 349 343 336 321 316 321 322 315 320
299 300 279 292 281 292 296 281 282 286 294 310 294 309 343 333 319 325 344 329 312 316 321 314 284 288 299 314 320 327 334 336 341 347 351 352 348 328 319 317 310 307 316
345 351 298 309 307 311 314 315 307 319 342 345 340 338 338 359 67 106 11 354 342 333 330 317 296 299 306 313 321 328 330 334 336 339 342 344 341 334 322 315 314 314 317
347 351 346 346 357 353 348 347 339 335 332 331 321 321 322 326 333 338 342 335 331 331 317 309 309 309 319 314 317 323 334 336 337 338 336 333 329 324 322 321 319 318 318
2 353 0 1 357 358 351 343 340 346 344 347 339 335 329 333 337 347 353 350 344 330 323 314 311 316 319 316 318 322 323 330 331 329 332 328 325 321 319 318 318 317 317
357 354 354 359 6 351 334 331 329 334 331 332 332 334 337 333 329 324 323 322 324 319 315 317 315 314 314 316 318 318 319 319 318 318 318 318 317 314 313 312 312 312 311
353 352 350 356 6 1 344 323 327 325 332 326 328 323 310 308 305 306 307 310 310 313 311 312 312 313 314 315 315 316 317 316 316 315 316 316 315 315 312 310 309 309 308
351 349 346 348 347 343 337 329 325 324 324 319 316 312 314 305 305 304 308 303 300 306 306 304 306 309 312 313 315 316 316 315 316 316 317 316 315 315 312 311 310 309 309
341 338 338 335 330 326 323 323 322 319 317 316 316 313 307 305 306 306 304 303 304 305 305 304 306 309 310 313 315 316 316 315 316 315 314 315 314 314 315 313 313 313 312
338 335 333 328 327 328 324 321 320 318 315 314 313 314 312 305 303 303 304 302 301 303 304 302 303 304 307 311 312 314 312 313 314 316 316 317 316 315 313 312 311 311 312
335 336 336 340 337 332 328 327 322 318 315 313 311 312 314 315 310 302 302 302 299 300 301 300 299 300 302 304 306 307 308 308 310 313 314 315 315 315 314 313 312 311 311
330 328 328 326 326 329 331 329 326 322 318 315 313 313 313 313 312 315 316 309 303 300 299 298 297 295 297 299 300 301 304 306 308 310 312 312 313 314 314 314 314 313 312
335 331 329 325 323 323 322 322 322 323 322 319 315 312 309 309 309 310 308 309 311 312 310 307 301 297 295 296 297 297 299 300 303 306 308 308 309 312 312 312 313 314 313
328 329 329 329 328 324 322 321 320 318 316 317 318 316 314 311 309 309 310 308 308 308 306 308 308 308 304 301 296 294 295 297 297 296 300 304 306 309 311 312 313 314 314